Location: Coopersdale
(40.3556°N, 78.9372°W)
Time: 03:34:15
(UTC+00:00)

Tiros 1 despin weight - Pass Details

Date: 25 January 2021
Orbit: 593 x 642 km, 48.2° (Epoch: 02 March)

Event Time Altitude Azimuth Distance (km) Brightness Sun altitude
Rises 22:00:28 0° 290° (WNW) 2,875 ? 3.5°
Reaches altitude 10° 22:03:02 10° 301° (WNW) 1,961 ? 3.1°
Maximum altitude 22:06:59 30° 3° (N) 1,101 ? 2.4°
Drops below altitude 10° 22:10:54 10° 65° (ENE) 1,937 ? 1.8°
Sets 22:13:25 0° 76° (ENE) 2,833 ? 1.3°
